Location: Newark
(31.5350°N, 35.0986°E)
Time: 21:34:45
(UTC+00:00)

Vanguard 1 - Pass Details

Date: 01 October 2019
Orbit: 653 x 3830 km, 34.2° (Epoch: 17 October)

Event Time Altitude Azimuth Distance (km) Brightness Sun altitude
Rises 01:34:43 0° 285° (WNW) 7,831 - -25.9°
Reaches altitude 10° 01:39:56 10° 285° (WNW) 6,910 - -24.8°
Exits shadow 01:45:21 22° 285° (WNW) 5,942 13.5 -23.7°
Maximum altitude 02:03:48 84° 202° (SSW) 3,363 12.6 -19.8°
Drops below altitude 10° 02:19:48 10° 116° (ESE) 4,939 14.5 -16.4°
Sets 02:22:49 0° 115° (ESE) 5,610 15.0 -15.8°
